Flag for U.S.A. Weather past 2 weeks in Sarasota, Florida, U.S.A.

Now
78 °F

Clear.


Feels Like: 81 °F
Forecast: 76 / 89 °F
Wind: 3 mph from East

Location: Sarasota-Bradenton International Airport

Current Time: Sep 2, 2015 at 12:46:25 AM

Latest Report: Sep 1, 2015 at 11:53 PM


Visibility: 10 mi

Pressure: 30.05 "Hg

Humidity: 93%

Dew point: 76 °F

Location of SarasotaLocation

Historic Weather in Sarasota — Graph

°F

Sarasota temperature yesterday

Maximum temperature yesterday: 89 °F (at 2:53 PM)
Minimum temperature yesterday: 74 °F (at 6:53 AM)
Average temperature yesterday: 81 °F

Past Weeks' High & Low Weather Summary

 TemperatureHumidityPressure
High96 °F (Aug 25, 10:53 AM)100% (Sep 1, 1:53 AM)30.07 "Hg (Sep 1, 1:53 AM)
Low73 °F (Aug 29, 12:53 AM)49% (Aug 23, 2:53 PM)29.85 "Hg (Aug 24, 7:53 PM)
Average82 °F81%29.97 "Hg
* Reported Aug 17 10:53 PM — Sep 1 10:53 PM, Sarasota, Weather by CustomWeather, © 2015

Note: Actual official high and low records may vary slightly from our data, if they occured in-between our weather recording intervals... More about our weather records

Advertising

Sarasota weather history for previous 24 hours

 ConditionsComfort  
Time TempWeatherWind HumidityBarometerVisibility
10:53 PM
Tue, Sep 1
79 °FClear.No wind90%30.05 "Hg10 mi
9:53 PM81 °FClear.No wind85%30.05 "Hg10 mi
8:53 PM82 °FClear.No wind82%30.03 "Hg10 mi
7:53 PM82 °FSunny.5 mph82%30.03 "Hg10 mi
6:53 PM85 °FSunny.7 mph75%30.02 "Hg10 mi
5:53 PM84 °FSunny.6 mph77%30.02 "Hg10 mi
4:53 PM86 °FSunny.9 mph72%30.02 "Hg10 mi
3:53 PM88 °FPassing clouds.13 mph65%30.03 "Hg10 mi
2:53 PM89 °FPassing clouds.12 mph70%30.05 "Hg10 mi
1:53 PM88 °FScattered clouds.15 mph73%30.06 "Hg10 mi
12:53 PM88 °FScattered clouds.10 mph73%30.06 "Hg10 mi
11:53 AM88 °FSunny.16 mph70%30.07 "Hg10 mi
10:53 AM86 °FScattered clouds.16 mph75%30.06 "Hg10 mi
9:53 AM83 °FPassing clouds.10 mph85%30.05 "Hg10 mi
8:53 AM78 °FPassing clouds.8 mph96%30.05 "Hg10 mi
7:53 AM75 °FPassing clouds.9 mph100%30.04 "Hg10 mi
6:53 AM74 °FClear.6 mph100%30.02 "Hg10 mi
5:53 AM75 °FPassing clouds.7 mph100%30.00 "Hg10 mi
4:53 AM75 °FClear.5 mph100%29.99 "Hg10 mi
3:53 AM76 °FPassing clouds.6 mph100%29.99 "Hg10 mi
2:53 AM76 °FClear.6 mph100%30.00 "Hg10 mi
1:53 AM76 °FClear.6 mph100%30.02 "Hg10 mi
12:53 AM76 °FClear.6 mph97%30.03 "Hg10 mi
Weather by CustomWeather, © 2015

See weather overviewHow to use our weather pages